Altamont, SD

10:46 PM CDT on August 21, 2014 (GMT -0500)
Canby | Change Station
CLOSE
Current Station
Airport
Location: Canby,
Elevation: 1194 ft
Nearby Weather Stations

Elev 1194 ft 44.73 °N, 96.26 °W | Updated 12 minutes ago

Clear
Clear
70 °F
Feels Like 70 °F
N
0
Wind Variable Wind from North

Today
High -- | Low -- °F
--% Chance of Precip.
Yesterday
High -- | Low -- °F
Precip. -- in
6:36 AM 8:22 PM
Waning Crescent, 10% visible
Pressure 29.90 in
Visibility 10.0 miles
Clouds Clear
Dew Point 68 °F
Humidity 92%
Rainfall 0.22 in
Snow Depth Not available.
UV 0 out of 12
Pollen 7.70 out of 12
Air Quality Not available.
Flu Activity Not available.
METAR KCNB 220334Z AUTO 00000KT 10SM CLR 21/20 A2990 RMK AO2 T02100197

More Conditions Fewer Conditions

Pressure 29.90 in
Visibility 10.0 miles
Clouds Clear
Dew Point 68 °F
Humidity 92%
Rainfall 0.22 in
Snow Depth Not available.
UV 0 out of 12
Pollen 7.70 out of 12
Air Quality Not available.
Flu Activity Not available.
METAR KCNB 220334Z AUTO 00000KT 10SM CLR 21/20 A2990 RMK AO2 T02100197

More Conditions Fewer Conditions

10-Day Weather Forecast

Almanac

Astronomy

Aug. 21, 2014 Rise Set
Actual Time 6:36 AM CDT 8:22 PM CDT
Civil Twilight 6:04 AM CDT 8:53 PM CDT
Nautical Twilight 5:26 AM CDT 9:31 PM CDT
Astronomical Twilight 4:45 AM CDT 10:12 PM CDT
Moon 3:03 AM CDT (8/21) 5:55 PM CDT (8/21)
Length of Visible Light 14h 48m
Length of Day
13h 46m
Tomorrow will be 2m 52s shorter.
Waning Crescent, 10% of the Moon is Illuminated
Today
Waning Crescent
Aug 25
New
Sep 2
First Quarter
Sep 8
Full
Sep 15
Last Quarter

Today's Extremes

State Highs State Lows

Community

WunderPhotos

Upload Photos

1,746,127 photos uploaded!

Nearby

Snow Depth

Station Depth Elevation
Blind Park 0 in 6890 ft

Earthquake Activity

City Distance Mag. Time & Date
No recent earthquake activity has been reported nearby.
Minimum magnitude displayed is 2.5.

Coastal Water Temperatures

Place Temperature
No Stations Reporting

Nearby Weather Stations